Wind_Speed
15 15 15 15 15 14 14 13 13 13 12 12 11 11 11 10 10 10 9 9 9 8 8 8 8 8 7 7 7 6 6 6 6 7 6 6 6 7 7 7 6 6 7
16 16 17 17 16 16 15 14 14 14 13 13 13 12 12 12 12 11 11 10 10 10 10 10 9 9 8 8 8 7 7 7 7 8 8 8 8 8 8 8 8 7 8
18 18 18 18 18 17 16 16 15 15 15 14 14 13 13 13 13 13 12 12 12 11 11 11 11 10 10 9 9 9 8 8 9 9 9 9 9 9 9 9 9 9 9
20 20 19 19 19 19 18 17 17 16 16 16 15 15 15 15 14 14 14 14 14 13 13 13 12 12 12 11 11 10 10 10 11 11 11 11 10 10 10 10 10 11 11
22 22 21 21 21 21 20 20 19 18 18 17 17 17 16 16 16 15 15 15 15 15 15 14 14 14 14 14 13 12 12 12 12 12 12 12 12 11 11 11 11 11 11
24 23 23 23 22 22 22 22 21 20 20 19 19 19 18 18 17 17 17 17 17 17 16 16 15 15 15 15 15 15 14 14 14 14 13 13 13 13 13 13 13 13 13
25 25 25 24 24 24 24 23 23 22 22 21 21 20 20 19 19 18 18 18 18 17 17 17 16 16 16 17 16 16 16 15 15 14 14 14 14 14 15 14 14 14 14
26 26 26 26 25 25 25 25 25 24 23 23 22 22 22 21 20 20 20 19 19 19 19 18 18 17 17 17 17 17 16 16 16 15 15 15 15 15 15 15 15 15 15
27 27 27 27 26 26 26 26 26 26 26 25 24 23 23 22 22 22 21 21 21 21 20 20 19 19 18 18 18 18 18 17 17 17 16 16 16 17 17 17 17 17 17
28 28 27 27 27 27 28 28 28 27 27 27 26 25 24 24 24 24 23 23 22 22 22 21 21 20 20 20 20 20 20 19 19 19 19 18 18 18 19 19 19 18 18
29 29 28 28 27 27 28 28 28 28 28 28 28 27 26 26 25 25 25 25 24 24 24 23 23 23 22 22 22 22 21 21 21 21 21 20 20 20 20 20 20 20 19
30 31 30 30 29 29 29 29 28 29 29 29 29 28 28 28 27 27 27 26 26 26 26 25 25 25 25 24 24 24 24 23 23 23 22 22 22 22 22 21 21 21 21
31 32 32 31 31 30 30 30 30 30 29 29 30 29 29 28 29 28 28 28 28 28 28 28 28 27 27 27 26 26 25 25 24 24 24 24 23 23 23 23 22 22 22
31 32 32 33 31 31 31 31 30 31 31 30 30 30 30 30 30 30 30 30 29 29 30 30 30 30 29 29 29 28 28 27 27 26 26 26 25 25 25 25 24 24 24
32 32 32 33 32 31 32 32 31 31 31 31 31 31 31 31 31 31 31 31 31 31 31 32 32 32 32 31 31 30 30 29 29 28 27 27 27 27 26 26 26 26 26
32 32 32 32 33 33 33 33 32 32 32 32 32 32 32 33 32 33 33 33 34 34 34 34 34 34 34 33 33 32 32 31 31 30 30 29 29 28 28 28 27 27 27
33 32 32 32 34 34 33 33 33 33 33 33 33 33 33 34 34 34 35 36 36 36 36 36 36 35 35 35 35 34 34 33 33 33 32 32 31 31 30 30 29 29 29
35 34 33 33 34 35 34 34 33 33 34 34 34 34 34 35 35 35 36 37 38 38 38 38 38 38 37 37 37 36 36 36 35 35 35 34 33 33 32 32 32 31 31
36 35 34 34 35 35 35 34 34 34 35 35 35 35 35 36 36 36 37 38 39 39 39 40 39 39 39 39 39 38 38 38 37 36 36 36 35 34 34 33 33 33 33
36 36 35 34 34 35 35 35 34 35 36 36 35 36 36 36 37 38 38 39 40 40 40 40 40 40 40 40 40 39 39 38 38 37 37 36 36 35 35 35 35 35 35
34 35 34 34 34 34 35 35 35 35 36 36 35 35 36 36 37 38 39 40 40 41 41 41 41 40 40 40 41 41 40 39 39 38 38 38 37 37 36 36 37 37 37
34 34 35 34 34 34 35 36 36 36 36 36 37 36 36 37 38 39 39 40 41 42 42 42 42 41 41 41 41 41 41 40 40 40 39 39 39 39 39 39 39 39 39
34 34 35 35 35 35 35 35 36 37 37 37 38 38 37 38 38 39 39 39 40 41 42 42 42 42 42 42 42 43 43 43 41 40 41 41 41 41 41 41 41 41 41
35 35 36 35 36 36 36 35 35 36 37 38 38 38 38 38 38 39 39 40 40 40 41 41 41 42 43 43 44 44 44 44 43 42 41 42 42 43 42 43 43 43 43
35 36 36 36 36 36 36 36 36 36 36 37 37 38 38 38 39 39 39 40 41 41 41 41 42 43 44 45 45 45 44 45 44 44 44 43 43 44 44 44 44 45 46
36 36 36 37 37 37 37 36 36 36 36 37 37 37 37 38 39 39 40 40 41 41 42 43 43 44 44 45 46 46 46 45 45 45 45 45 45 45 45 46 46 47 47
Wind_Direction
244 244 245 246 247 247 246 244 243 241 239 235 233 233 235 237 239 240 242 244 247 248 252 254 254 254 256 258 261 264 268 275 281 282 285 289 293 295 293 292 294 299 301
245 246 247 247 247 248 247 245 243 243 242 240 238 237 237 240 244 245 245 245 248 250 252 253 254 257 257 259 260 264 269 274 280 282 285 287 291 294 294 292 290 291 295
245 247 248 249 249 248 247 245 245 245 244 244 242 241 241 242 245 248 247 248 249 250 253 251 250 253 255 257 259 262 267 271 276 281 284 285 288 289 291 292 291 290 291
246 248 249 249 249 248 247 246 246 246 246 247 245 244 244 244 246 248 248 249 251 251 253 252 250 250 253 255 258 262 267 271 274 279 283 284 285 287 288 290 291 290 290
248 249 250 250 249 249 248 248 247 247 247 247 247 246 247 247 247 248 249 250 251 252 253 253 251 250 252 255 257 261 266 270 273 275 279 281 282 284 285 288 290 290 290
251 250 250 250 250 249 248 247 248 248 248 248 248 247 248 249 250 250 249 251 252 253 253 252 252 251 251 253 256 260 264 267 271 273 275 278 279 281 283 285 287 289 290
252 252 251 250 250 250 248 247 247 248 249 250 249 249 248 249 250 251 251 251 252 252 253 252 252 252 252 254 256 259 262 265 269 272 274 276 279 281 282 284 285 286 288
251 251 251 250 250 249 249 248 247 248 249 249 249 249 249 249 249 250 251 252 252 253 253 253 252 251 252 254 255 258 262 264 267 271 272 275 278 280 282 283 283 284 286
250 250 250 249 249 249 249 248 247 247 248 248 249 249 249 250 250 250 251 251 253 253 254 253 252 252 251 254 256 258 261 264 266 268 270 273 276 279 281 282 282 282 284
249 249 249 249 248 248 249 249 248 247 247 248 248 248 249 250 250 250 251 251 252 253 254 254 252 252 253 254 257 260 262 263 265 266 269 271 275 278 279 280 280 281 281
250 248 248 248 248 248 249 249 249 247 247 247 248 249 250 251 252 252 252 252 252 253 254 254 254 254 254 255 257 260 262 263 266 267 268 270 273 276 278 279 278 279 280
250 247 247 248 248 248 248 248 250 249 248 247 248 249 250 251 252 253 253 253 252 253 253 254 255 256 255 256 258 260 262 263 265 267 269 270 272 273 276 277 277 278 280
249 248 247 247 248 247 247 248 249 250 249 249 249 249 250 251 252 253 254 253 253 254 253 254 255 257 256 255 257 259 262 263 265 266 268 269 271 272 273 275 276 278 279
250 248 247 247 248 246 246 248 249 250 249 250 250 250 251 251 253 253 253 253 253 253 254 254 255 256 257 256 257 259 261 264 264 266 267 268 270 271 272 273 275 277 278
250 249 248 246 246 245 245 247 249 249 250 250 251 251 251 252 254 254 254 254 254 253 253 254 256 256 257 258 258 259 261 263 264 265 266 267 269 270 272 272 274 276 276
251 249 249 247 245 244 245 246 248 249 249 250 251 252 252 253 255 256 255 255 254 254 254 255 256 257 257 258 258 259 260 262 264 264 265 267 268 269 271 271 273 275 275
250 249 250 250 247 245 246 246 248 249 250 251 252 253 254 254 255 256 256 255 255 255 255 255 256 257 258 258 258 259 260 262 264 264 264 266 267 268 270 272 272 274 274
249 249 251 250 248 246 248 248 249 250 251 252 253 255 256 256 257 257 256 256 256 256 256 256 257 258 259 259 259 259 260 262 263 264 264 265 266 268 270 271 272 273 274
250 250 251 250 249 249 249 248 250 251 252 254 255 256 257 257 257 258 258 256 256 256 256 256 257 257 258 258 259 260 260 262 263 263 264 264 266 267 269 270 271 272 273
250 251 252 252 253 252 250 250 252 252 253 255 257 258 259 260 259 260 259 257 256 256 256 256 256 256 256 257 258 259 260 261 262 262 264 265 266 267 269 270 270 271 273
252 253 253 253 253 253 252 253 254 253 254 256 258 259 261 262 261 260 259 259 257 256 256 256 256 256 256 256 257 258 259 260 261 262 264 265 266 267 268 270 270 272 273
252 254 253 254 254 254 254 255 254 255 256 258 259 261 262 263 261 260 259 259 258 256 256 256 256 256 256 256 257 257 258 259 261 262 264 265 267 267 269 270 271 271 272
252 253 254 255 255 255 256 257 256 256 257 258 260 261 262 262 262 260 259 259 258 257 256 256 256 255 255 255 256 256 257 258 260 261 264 265 266 267 269 270 270 271 272
252 253 254 254 256 257 258 258 258 258 258 259 261 262 263 262 262 261 260 259 258 257 256 255 255 255 255 254 256 257 258 259 260 261 262 264 265 267 268 270 270 270 272
250 252 253 254 256 257 258 257 258 259 260 260 261 263 263 262 262 262 260 259 259 257 257 257 256 256 255 255 256 256 258 258 259 260 261 262 265 267 268 269 270 272 273
250 252 253 254 255 256 257 257 259 260 260 261 262 263 264 263 263 262 261 261 260 258 258 258 258 257 257 256 256 257 257 258 259 260 260 262 264 266 269 270 270 272 274
Height
5838 5839 5840 5841 5842 5843 5844 5846 5847 5848 5850 5851 5852 5853 5854 5856 5857 5858 5859 5860 5861 5862 5863 5864 5865 5866 5867 5867 5868 5869 5869 5870 5870 5870 5870 5871 5871 5871 5871 5871 5870 5870 5870
5835 5836 5837 5838 5839 5841 5842 5843 5844 5846 5847 5848 5850 5851 5852 5853 5855 5856 5857 5858 5859 5860 5861 5862 5863 5864 5865 5866 5867 5867 5868 5868 5869 5869 5869 5869 5869 5869 5869 5869 5869 5869 5869
5831 5833 5834 5835 5836 5838 5839 5840 5842 5843 5844 5846 5847 5848 5850 5851 5852 5854 5855 5856 5857 5858 5859 5860 5861 5862 5863 5864 5865 5866 5866 5867 5867 5868 5868 5868 5868 5868 5868 5868 5868 5867 5867
5827 5829 5830 5832 5833 5834 5836 5837 5838 5840 5841 5843 5844 5846 5847 5848 5850 5851 5852 5853 5854 5856 5857 5858 5859 5860 5861 5862 5863 5864 5864 5865 5865 5866 5866 5866 5866 5866 5866 5866 5866 5866 5865
5823 5824 5826 5828 5829 5830 5832 5834 5835 5836 5838 5839 5841 5842 5844 5845 5846 5848 5849 5850 5851 5853 5854 5855 5856 5857 5858 5859 5860 5861 5862 5863 5863 5864 5864 5864 5864 5864 5864 5864 5864 5864 5863
5818 5820 5822 5823 5825 5826 5828 5829 5831 5832 5834 5836 5837 5839 5840 5842 5843 5844 5846 5847 5848 5849 5851 5852 5853 5855 5856 5857 5858 5859 5859 5860 5860 5861 5861 5862 5862 5862 5862 5862 5862 5861 5861
5813 5815 5817 5818 5820 5821 5823 5825 5826 5828 5830 5832 5833 5835 5836 5838 5839 5841 5842 5843 5845 5846 5847 5849 5850 5851 5852 5853 5854 5855 5856 5857 5857 5858 5858 5859 5859 5859 5859 5859 5859 5859 5859
5808 5810 5811 5813 5815 5816 5818 5820 5822 5823 5825 5827 5829 5831 5832 5834 5835 5837 5838 5840 5841 5842 5844 5845 5847 5848 5849 5850 5851 5852 5853 5854 5854 5855 5855 5856 5856 5856 5856 5856 5856 5856 5856
5802 5804 5805 5807 5809 5811 5813 5815 5817 5818 5820 5822 5824 5826 5828 5829 5831 5832 5834 5836 5837 5838 5840 5841 5843 5844 5845 5846 5847 5848 5849 5850 5851 5851 5852 5852 5853 5853 5853 5853 5853 5853 5853
5796 5798 5800 5801 5803 5805 5807 5809 5811 5813 5815 5817 5819 5821 5823 5824 5826 5828 5829 5831 5833 5834 5835 5837 5838 5840 5841 5842 5843 5844 5845 5846 5847 5848 5848 5848 5849 5849 5849 5850 5849 5849 5849
5790 5792 5794 5795 5797 5799 5801 5803 5805 5807 5809 5811 5813 5815 5817 5819 5821 5823 5824 5826 5827 5829 5831 5832 5833 5835 5836 5837 5839 5840 5841 5842 5843 5843 5844 5844 5845 5845 5845 5845 5845 5845 5845
5783 5785 5787 5789 5791 5793 5795 5797 5799 5801 5803 5805 5807 5809 5811 5813 5815 5817 5819 5820 5822 5824 5825 5827 5828 5830 5831 5833 5834 5835 5836 5837 5838 5839 5839 5840 5840 5841 5841 5841 5841 5841 5841
5776 5778 5780 5783 5784 5786 5788 5790 5792 5795 5797 5799 5801 5803 5805 5807 5809 5811 5813 5814 5816 5818 5819 5821 5822 5824 5826 5827 5828 5830 5831 5832 5833 5833 5834 5835 5835 5836 5836 5836 5836 5836 5836
5769 5771 5772 5775 5777 5779 5781 5783 5786 5788 5790 5792 5794 5796 5798 5800 5802 5804 5806 5808 5809 5811 5813 5814 5816 5818 5819 5821 5822 5824 5825 5826 5827 5828 5829 5829 5830 5830 5831 5831 5831 5831 5831
5761 5762 5764 5767 5769 5771 5774 5776 5778 5780 5783 5785 5787 5789 5791 5793 5795 5797 5799 5801 5802 5804 5806 5807 5809 5811 5812 5814 5816 5817 5819 5820 5821 5822 5823 5824 5824 5825 5825 5825 5826 5826 5825
5753 5754 5756 5759 5761 5763 5766 5768 5770 5772 5775 5777 5780 5781 5783 5785 5787 5789 5791 5793 5794 5796 5798 5800 5801 5803 5805 5807 5809 5810 5812 5813 5814 5816 5816 5817 5818 5819 5819 5819 5820 5820 5819
5745 5747 5749 5750 5753 5755 5758 5760 5762 5765 5767 5769 5772 5773 5775 5777 5779 5781 5782 5784 5786 5788 5789 5791 5793 5795 5797 5799 5801 5803 5804 5806 5807 5808 5809 5810 5811 5812 5812 5813 5813 5813 5813
5737 5739 5741 5743 5744 5747 5750 5752 5754 5757 5759 5761 5763 5765 5767 5768 5770 5772 5773 5775 5777 5778 5780 5782 5784 5786 5788 5790 5793 5795 5796 5798 5799 5801 5802 5803 5804 5805 5805 5806 5806 5806 5806
5728 5731 5733 5735 5737 5740 5742 5744 5746 5748 5751 5753 5754 5756 5758 5759 5761 5762 5764 5765 5767 5769 5771 5773 5775 5777 5779 5781 5784 5786 5788 5789 5791 5792 5794 5795 5796 5797 5797 5798 5798 5798 5799
5720 5722 5725 5727 5729 5732 5734 5736 5738 5740 5742 5744 5746 5747 5749 5750 5751 5752 5754 5755 5757 5759 5761 5763 5765 5767 5770 5772 5774 5776 5779 5780 5782 5783 5785 5786 5787 5788 5789 5790 5790 5790 5791
5712 5714 5716 5718 5721 5723 5725 5728 5730 5732 5734 5735 5737 5738 5739 5740 5741 5742 5744 5745 5746 5748 5750 5752 5755 5757 5760 5762 5765 5767 5769 5771 5773 5774 5776 5777 5778 5779 5780 5781 5781 5782 5782
5704 5705 5708 5710 5712 5715 5717 5719 5721 5723 5725 5726 5727 5728 5729 5730 5731 5732 5733 5734 5736 5738 5740 5742 5745 5747 5750 5752 5755 5757 5759 5762 5763 5765 5767 5768 5769 5770 5771 5772 5772 5773 5773
5696 5698 5700 5702 5704 5706 5708 5710 5712 5714 5715 5717 5718 5719 5719 5720 5720 5721 5723 5724 5726 5727 5729 5732 5734 5737 5739 5741 5744 5747 5749 5752 5754 5756 5757 5758 5759 5760 5761 5762 5762 5763 5763
5688 5690 5692 5694 5695 5697 5699 5701 5703 5705 5706 5707 5708 5709 5710 5710 5711 5711 5713 5714 5716 5717 5719 5721 5723 5725 5728 5730 5733 5735 5739 5741 5744 5746 5748 5748 5749 5750 5750 5751 5751 5752 5752
5679 5681 5683 5685 5687 5689 5690 5692 5694 5695 5696 5697 5699 5699 5700 5700 5701 5702 5703 5704 5706 5708 5709 5711 5712 5714 5716 5719 5721 5724 5727 5729 5732 5734 5737 5738 5738 5739 5740 5740 5740 5740 5740
5670 5672 5674 5676 5678 5680 5681 5683 5684 5686 5687 5688 5689 5690 5690 5691 5691 5692 5693 5694 5696 5697 5699 5700 5702 5703 5705 5707 5710 5712 5715 5717 5720 5722 5724 5726 5727 5728 5728 5728 5728 5728 5728